ProjectID,Date,Electric Generation,Electric Utility Import,Facility Electric Load
,YYYY-MM-DD,kW,kW,kW
267,2015-07-01,0.0,,0.0
267,2015-07-02,0.0,,0.0
267,2015-07-03,0.0,,0.0
267,2015-07-04,0.0,,0.0
267,2015-07-05,0.0,,0.0
267,2015-07-06,0.0,,0.0
267,2015-07-07,0.0,,0.0
267,2015-07-08,0.0,,0.0
267,2015-07-09,0.0,,0.0
267,2015-07-10,0.0,,0.0
267,2015-07-11,0.0,,0.0
267,2015-07-12,0.0,,0.0
267,2015-07-13,0.0,,0.0
267,2015-07-14,0.0,,0.0
267,2015-07-15,0.0,,0.0
267,2015-07-16,0.0,,0.0
267,2015-07-17,0.0,,0.0
267,2015-07-18,0.0,,0.0
267,2015-07-19,0.0,,0.0
267,2015-07-20,0.0,,0.0
267,2015-07-21,3.29625,,3.29625
267,2015-07-22,9.359583333333333,,9.359583333333333
267,2015-07-23,9.295416666666666,,9.295416666666666
267,2015-07-24,8.951666666666666,,8.951666666666666
267,2015-07-25,8.095,,8.095
267,2015-07-26,5.3025,,5.3025
267,2015-07-27,5.407916666666666,,5.407916666666666
267,2015-07-28,8.344166666666666,,8.344166666666666
267,2015-07-29,7.509166666666666,,7.509166666666666
267,2015-07-30,2.4320833333333334,,2.4320833333333334
267,2015-07-31,8.927916666666667,,8.927916666666667
267,2015-08-01,6.296250000000001,,6.296250000000001
267,2015-08-02,8.871666666666666,,8.871666666666666
267,2015-08-03,8.06625,,8.06625
267,2015-08-04,8.201666666666666,,8.201666666666666
267,2015-08-05,7.15375,,7.15375
267,2015-08-06,7.58625,,7.58625
267,2015-08-07,5.918333333333333,,5.918333333333333
267,2015-08-08,6.479166666666667,,6.479166666666667
267,2015-08-09,8.324583333333333,,8.324583333333333
267,2015-08-10,6.835833333333333,,6.835833333333333
267,2015-08-11,1.2933333333333332,,1.2933333333333332
267,2015-08-12,8.5025,,8.5025
267,2015-08-13,7.685,,7.685
267,2015-08-14,8.094583333333334,,8.094583333333334
267,2015-08-15,7.5425,,7.5425
267,2015-08-16,6.3975,,6.3975
267,2015-08-17,7.412916666666667,,7.412916666666667
267,2015-08-18,5.997916666666666,,5.997916666666666
267,2015-08-19,8.314166666666667,,8.314166666666667
267,2015-08-20,6.902083333333334,,6.902083333333334
267,2015-08-21,8.831666666666667,,8.831666666666667
267,2015-08-22,9.75,,9.75
267,2015-08-23,6.617083333333333,,6.617083333333333
267,2015-08-24,7.665416666666666,,7.665416666666666
267,2015-08-25,6.416666666666667,,6.416666666666667
267,2015-08-26,18.822083333333335,,18.822083333333335
267,2015-08-27,20.587500000000002,,20.587500000000002
267,2015-08-28,19.5075,,19.5075
267,2015-08-29,21.38625,,21.38625
267,2015-08-30,14.840416666666668,,14.840416666666668
267,2015-08-31,18.137916666666666,,18.137916666666666
267,2015-09-01,20.46291666666667,,20.46291666666667
267,2015-09-02,20.8025,,20.8025
267,2015-09-03,20.77,,20.77
267,2015-09-04,7.767083333333333,,7.767083333333333
267,2015-09-05,21.604166666666668,,21.604166666666668
267,2015-09-06,25.374583333333334,,25.374583333333334
267,2015-09-07,24.127499999999998,,24.127499999999998
267,2015-09-08,21.840416666666666,,21.840416666666666
267,2015-09-09,13.313333333333333,,13.313333333333333
267,2015-09-10,1.595,,1.595
267,2015-09-11,9.405416666666666,,9.405416666666666
267,2015-09-12,7.74875,,7.74875
267,2015-09-13,17.875833333333333,,17.875833333333333
267,2015-09-14,17.647916666666667,,17.647916666666667
267,2015-09-15,22.091250000000002,,22.091250000000002
267,2015-09-16,23.601249999999997,,23.601249999999997
267,2015-09-17,22.760416666666668,,22.760416666666668
267,2015-09-18,20.582083333333333,,20.582083333333333
267,2015-09-19,16.403333333333332,,16.403333333333332
267,2015-09-20,7.173749999999999,,7.173749999999999
267,2015-09-21,9.15,,9.15
267,2015-09-22,4.668333333333334,,4.668333333333334
267,2015-09-23,16.752083333333335,,16.752083333333335
267,2015-09-24,19.09875,,19.09875
267,2015-09-25,8.112083333333333,,8.112083333333333
267,2015-09-26,8.080833333333333,,8.080833333333333
267,2015-09-27,9.442916666666667,,9.442916666666667
267,2015-09-28,5.461666666666667,,5.461666666666667
267,2015-09-29,12.034999999999998,,12.034999999999998
267,2015-09-30,7.0754166666666665,,7.0754166666666665
267,2015-10-01,10.504166666666666,,10.504166666666666
267,2015-10-02,5.0062500000000005,,5.0062500000000005
267,2015-10-03,4.21625,,4.21625
267,2015-10-04,19.7475,,19.7475
267,2015-10-05,18.138749999999998,,18.138749999999998
267,2015-10-06,22.307083333333335,,22.307083333333335
267,2015-10-07,19.512083333333333,,19.512083333333333
267,2015-10-08,18.48875,,18.48875
267,2015-10-09,10.35375,,10.35375
267,2015-10-10,23.2075,,23.2075
267,2015-10-11,21.4325,,21.4325
267,2015-10-12,21.408749999999998,,21.408749999999998
267,2015-10-13,12.247916666666667,,12.247916666666667
267,2015-10-14,13.554583333333333,,13.554583333333333
267,2015-10-15,21.119583333333335,,21.119583333333335
267,2015-10-16,20.39625,,20.39625
267,2015-10-17,18.19625,,18.19625
267,2015-10-18,17.627916666666668,,17.627916666666668
267,2015-10-19,21.089166666666667,,21.089166666666667
267,2015-10-20,18.382916666666667,,18.382916666666667
267,2015-10-21,17.598333333333333,,17.598333333333333
267,2015-10-22,15.424999999999999,,15.424999999999999
267,2015-10-23,20.311666666666667,,20.311666666666667
267,2015-10-24,12.948749999999999,,12.948749999999999
267,2015-10-25,7.964166666666666,,7.964166666666666
267,2015-10-26,19.332916666666666,,19.332916666666666
267,2015-10-27,12.455833333333333,,12.455833333333333
267,2015-10-28,2.5970833333333334,,2.5970833333333334
267,2015-10-29,13.44375,,13.44375
267,2015-10-30,18.767500000000002,,18.767500000000002
267,2015-10-31,17.065,,17.065
267,2015-11-01,5.415416666666666,,5.415416666666666
267,2015-11-02,9.764583333333333,,9.764583333333333
267,2015-11-03,16.427083333333332,,16.427083333333332
267,2015-11-04,16.09125,,16.09125
267,2015-11-05,4.767916666666667,,4.767916666666667
267,2015-11-06,5.8500000000000005,,5.8500000000000005
267,2015-11-07,5.270416666666667,,5.270416666666667
267,2015-11-08,16.39875,,16.39875
267,2015-11-09,14.71,,14.71
267,2015-11-10,2.651666666666667,,2.651666666666667
267,2015-11-11,7.65125,,7.65125
267,2015-11-12,1.5737500000000002,,1.5737500000000002
267,2015-11-13,12.005833333333333,,12.005833333333333
267,2015-11-14,13.526666666666666,,13.526666666666666
267,2015-11-15,14.36,,14.36
267,2015-11-16,13.857916666666666,,13.857916666666666
267,2015-11-17,14.863750000000001,,14.863750000000001
267,2015-11-18,8.546666666666667,,8.546666666666667
267,2015-11-19,3.2608333333333337,,3.2608333333333337
267,2015-11-20,13.159999999999998,,13.159999999999998
267,2015-11-21,14.043333333333335,,14.043333333333335
267,2015-11-22,5.429583333333333,,5.429583333333333
267,2015-11-23,13.746666666666668,,13.746666666666668
267,2015-11-24,12.250833333333333,,12.250833333333333
267,2015-11-25,10.810833333333333,,10.810833333333333
267,2015-11-26,10.8125,,10.8125
267,2015-11-27,11.09625,,11.09625
267,2015-11-28,3.4625,,3.4625
267,2015-11-29,11.39875,,11.39875
267,2015-11-30,6.732083333333333,,6.732083333333333
267,2015-12-01,1.6079166666666669,,1.6079166666666669
267,2015-12-02,1.4116666666666668,,1.4116666666666668
267,2015-12-03,6.8875,,6.8875
267,2015-12-04,11.437083333333334,,11.437083333333334
267,2015-12-05,11.602916666666667,,11.602916666666667
267,2015-12-06,11.538333333333334,,11.538333333333334
267,2015-12-07,10.104166666666666,,10.104166666666666
267,2015-12-08,6.496666666666666,,6.496666666666666
267,2015-12-09,3.0416666666666665,,3.0416666666666665
267,2015-12-10,10.187916666666666,,10.187916666666666
267,2015-12-11,6.409583333333334,,6.409583333333334
267,2015-12-12,6.74125,,6.74125
267,2015-12-13,8.393333333333333,,8.393333333333333
267,2015-12-14,2.348333333333333,,2.348333333333333
267,2015-12-15,10.89,,10.89
267,2015-12-16,10.525,,10.525
267,2015-12-17,0.64625,,0.64625
267,2015-12-18,3.3016666666666663,,3.3016666666666663
267,2015-12-19,9.180833333333334,,9.180833333333334
267,2015-12-20,10.8975,,10.8975
267,2015-12-21,3.52125,,3.52125
267,2015-12-22,0.8733333333333334,,0.8733333333333334
267,2015-12-23,1.4220833333333334,,1.4220833333333334
267,2015-12-24,2.0220833333333332,,2.0220833333333332
267,2015-12-25,7.421666666666667,,7.421666666666667
267,2015-12-26,4.18875,,4.18875
267,2015-12-27,3.2245833333333334,,3.2245833333333334
267,2015-12-28,9.709166666666667,,9.709166666666667
267,2015-12-29,1.4833333333333334,,1.4833333333333334
267,2015-12-30,1.3020833333333333,,1.3020833333333333
267,2015-12-31,3.89625,,3.89625
267,2016-01-01,3.859166666666667,,3.859166666666667
267,2016-01-02,5.989583333333333,,5.989583333333333
267,2016-01-03,11.038333333333334,,11.038333333333334
267,2016-01-04,12.43,,12.43
267,2016-01-05,12.726666666666667,,12.726666666666667
267,2016-01-06,12.232083333333334,,12.232083333333334
267,2016-01-07,10.59125,,10.59125
267,2016-01-08,6.289583333333333,,6.289583333333333
267,2016-01-09,5.4425,,5.4425
267,2016-01-10,2.4787500000000002,,2.4787500000000002
267,2016-01-11,12.716666666666667,,12.716666666666667
267,2016-01-12,6.825833333333333,,6.825833333333333
267,2016-01-13,11.995416666666666,,11.995416666666666
267,2016-01-14,7.809583333333333,,7.809583333333333
267,2016-01-15,8.382083333333332,,8.382083333333332
267,2016-01-16,7.515833333333333,,7.515833333333333
267,2016-01-17,2.1720833333333336,,2.1720833333333336
267,2016-01-18,7.645,,7.645
267,2016-01-19,13.840833333333334,,13.840833333333334
267,2016-01-20,12.756666666666668,,12.756666666666668
267,2016-01-21,13.706666666666665,,13.706666666666665
267,2016-01-22,8.908333333333333,,8.908333333333333
267,2016-01-23,0.07291666666666667,,0.07291666666666667
267,2016-01-24,0.4266666666666667,,0.4266666666666667
267,2016-01-25,0.8683333333333333,,0.8683333333333333
267,2016-01-26,1.2866666666666666,,1.2866666666666666
267,2016-01-27,4.180833333333333,,4.180833333333333
267,2016-01-28,7.679166666666667,,7.679166666666667
267,2016-01-29,5.232083333333333,,5.232083333333333
267,2016-01-30,11.738750000000001,,11.738750000000001
267,2016-01-31,12.321666666666667,,12.321666666666667
267,2016-02-01,9.572083333333333,,9.572083333333333
267,2016-02-02,15.444166666666668,,15.444166666666668
267,2016-02-03,0.7429166666666666,,0.7429166666666666
267,2016-02-04,7.06375,,7.06375
267,2016-02-05,0.10083333333333333,,0.10083333333333333
267,2016-02-06,0.6075,,0.6075
267,2016-02-07,4.2508333333333335,,4.2508333333333335
267,2016-02-08,0.7054166666666667,,0.7054166666666667
267,2016-02-09,1.1675,,1.1675
267,2016-02-10,3.575833333333333,,3.575833333333333
267,2016-02-11,13.705,,13.705
267,2016-02-12,15.7125,,15.7125
267,2016-02-13,18.962500000000002,,18.962500000000002
267,2016-02-14,21.420833333333334,,21.420833333333334
267,2016-02-15,2.9779166666666668,,2.9779166666666668
267,2016-02-16,1.7508333333333335,,1.7508333333333335
267,2016-02-17,5.8429166666666665,,5.8429166666666665
267,2016-02-18,22.410833333333333,,22.410833333333333
267,2016-02-19,15.56,,15.56
267,2016-02-20,16.047083333333333,,16.047083333333333
267,2016-02-21,11.139166666666666,,11.139166666666666
267,2016-02-22,21.94458333333333,,21.94458333333333
267,2016-02-23,4.2749999999999995,,4.2749999999999995
267,2016-02-24,2.0504166666666666,,2.0504166666666666
267,2016-02-25,5.169583333333333,,5.169583333333333
267,2016-02-26,24.706666666666667,,24.706666666666667
267,2016-02-27,22.470416666666665,,22.470416666666665
267,2016-02-28,22.542916666666667,,22.542916666666667
267,2016-02-29,9.303333333333333,,9.303333333333333
267,2016-03-01,21.332083333333333,,21.332083333333333
267,2016-03-02,21.000833333333333,,21.000833333333333
267,2016-03-03,22.249583333333334,,22.249583333333334
267,2016-03-04,9.991249999999999,,9.991249999999999
267,2016-03-05,20.364166666666666,,20.364166666666666
267,2016-03-06,22.171666666666667,,22.171666666666667
267,2016-03-07,22.772916666666664,,22.772916666666664
267,2016-03-08,19.934166666666666,,19.934166666666666
267,2016-03-09,23.28333333333333,,23.28333333333333
267,2016-03-10,13.397083333333333,,13.397083333333333
267,2016-03-11,19.318749999999998,,19.318749999999998
267,2016-03-12,25.374583333333334,,25.374583333333334
267,2016-03-13,11.792916666666665,,11.792916666666665
267,2016-03-14,4.45125,,4.45125
267,2016-03-15,11.351666666666667,,11.351666666666667
267,2016-03-16,22.078333333333333,,22.078333333333333
267,2016-03-17,18.01875,,18.01875
267,2016-03-18,18.91375,,18.91375
267,2016-03-19,21.64916666666667,,21.64916666666667
267,2016-03-20,16.20875,,16.20875
267,2016-03-21,18.631249999999998,,18.631249999999998
267,2016-03-22,26.743333333333336,,26.743333333333336
267,2016-03-23,14.046666666666667,,14.046666666666667
267,2016-03-24,20.780833333333334,,20.780833333333334
267,2016-03-25,12.499583333333334,,12.499583333333334
267,2016-03-26,23.902083333333334,,23.902083333333334
267,2016-03-27,18.775833333333335,,18.775833333333335
267,2016-03-28,7.918333333333333,,7.918333333333333
267,2016-03-29,30.39,,30.39
267,2016-03-30,28.505416666666665,,28.505416666666665
267,2016-03-31,21.56833333333333,,21.56833333333333
267,2016-04-01,12.140416666666667,,12.140416666666667
267,2016-04-02,7.387083333333333,,7.387083333333333
267,2016-04-03,15.034166666666666,,15.034166666666666
267,2016-04-04,3.170833333333333,,3.170833333333333
267,2016-04-05,26.83583333333333,,26.83583333333333
267,2016-04-06,20.64625,,20.64625
267,2016-04-07,7.04375,,7.04375
267,2016-04-08,9.422916666666667,,9.422916666666667
267,2016-04-09,11.842500000000001,,11.842500000000001
267,2016-04-10,32.84166666666667,,32.84166666666667
267,2016-04-11,16.266666666666666,,16.266666666666666
267,2016-04-12,14.853333333333333,,14.853333333333333
267,2016-04-13,33.54416666666666,,33.54416666666666
267,2016-04-14,33.066250000000004,,33.066250000000004
267,2016-04-15,33.04708333333333,,33.04708333333333
267,2016-04-16,33.199999999999996,,33.199999999999996
267,2016-04-17,32.379583333333336,,32.379583333333336
267,2016-04-18,31.81458333333333,,31.81458333333333
267,2016-04-19,32.656666666666666,,32.656666666666666
267,2016-04-20,34.0625,,34.0625
267,2016-04-21,31.662499999999998,,31.662499999999998
267,2016-04-22,21.87,,21.87
267,2016-04-23,22.3625,,22.3625
267,2016-04-24,34.26625,,34.26625
267,2016-04-25,22.802083333333332,,22.802083333333332
267,2016-04-26,6.747083333333333,,6.747083333333333
267,2016-04-27,33.9275,,33.9275
267,2016-04-28,22.7225,,22.7225
267,2016-04-29,18.256666666666668,,18.256666666666668
267,2016-04-30,29.552083333333332,,29.552083333333332
267,2016-05-01,4.985,,4.985
267,2016-05-02,9.817916666666667,,9.817916666666667
267,2016-05-03,5.465416666666666,,5.465416666666666
267,2016-05-04,6.949583333333333,,6.949583333333333
267,2016-05-05,15.498333333333333,,15.498333333333333
267,2016-05-06,7.166666666666667,,7.166666666666667
267,2016-05-07,8.246666666666666,,8.246666666666666
267,2016-05-08,25.581666666666667,,25.581666666666667
267,2016-05-09,32.92041666666667,,32.92041666666667
267,2016-05-10,29.5775,,29.5775
267,2016-05-11,32.89041666666667,,32.89041666666667
267,2016-05-12,33.25083333333333,,33.25083333333333
267,2016-05-13,7.317916666666666,,7.317916666666666
267,2016-05-14,27.342083333333335,,27.342083333333335
267,2016-05-15,18.799166666666668,,18.799166666666668
267,2016-05-16,34.82875,,34.82875
267,2016-05-17,16.594583333333333,,16.594583333333333
267,2016-05-18,26.045,,26.045
267,2016-05-19,24.917916666666667,,24.917916666666667
267,2016-05-20,31.262916666666666,,31.262916666666666
267,2016-05-21,11.64125,,11.64125
267,2016-05-22,22.209166666666665,,22.209166666666665
267,2016-05-23,28.172083333333333,,28.172083333333333
267,2016-05-24,13.894583333333335,,13.894583333333335
267,2016-05-25,33.050000000000004,,33.050000000000004
267,2016-05-26,31.25375,,31.25375
267,2016-05-27,22.78916666666667,,22.78916666666667
267,2016-05-28,27.452083333333334,,27.452083333333334
267,2016-05-29,30.617500000000003,,30.617500000000003
267,2016-05-30,17.389583333333334,,17.389583333333334
267,2016-05-31,29.449583333333333,,29.449583333333333
267,2016-06-01,30.595,,30.595
267,2016-06-02,31.5475,,31.5475
267,2016-06-03,7.02,,7.02
267,2016-06-04,23.65041666666667,,23.65041666666667
267,2016-06-05,5.285,,5.285
267,2016-06-06,30.96083333333333,,30.96083333333333
267,2016-06-07,26.848333333333333,,26.848333333333333
267,2016-06-08,17.285416666666666,,17.285416666666666
267,2016-06-09,36.92375,,36.92375
267,2016-06-10,33.17791666666667,,33.17791666666667
267,2016-06-11,17.735416666666666,,17.735416666666666
267,2016-06-12,32.67666666666667,,32.67666666666667
267,2016-06-13,27.872083333333332,,27.872083333333332
267,2016-06-14,36.964166666666664,,36.964166666666664
267,2016-06-15,34.833333333333336,,34.833333333333336
267,2016-06-16,12.060416666666667,,12.060416666666667
267,2016-06-17,32.63458333333333,,32.63458333333333
267,2016-06-18,32.864583333333336,,32.864583333333336
267,2016-06-19,31.11708333333333,,31.11708333333333
267,2016-06-20,28.504166666666666,,28.504166666666666
267,2016-06-21,28.465,,28.465
267,2016-06-22,29.545,,29.545
267,2016-06-23,20.027916666666666,,20.027916666666666
267,2016-06-24,28.60291666666667,,28.60291666666667
267,2016-06-25,29.9675,,29.9675
267,2016-06-26,31.00125,,31.00125
267,2016-06-27,25.756666666666664,,25.756666666666664
267,2016-06-28,10.34875,,10.34875
267,2016-06-29,28.631666666666664,,28.631666666666664
267,2016-06-30,33.959583333333335,,33.959583333333335
267,2016-07-01,18.566666666666666,,18.566666666666666
267,2016-07-02,25.806250000000002,,25.806250000000002
267,2016-07-03,25.354583333333334,,25.354583333333334
267,2016-07-04,25.973333333333333,,25.973333333333333
267,2016-07-05,21.35291666666667,,21.35291666666667
267,2016-07-06,32.181666666666665,,32.181666666666665
267,2016-07-07,19.032083333333333,,19.032083333333333
267,2016-07-08,20.377916666666668,,20.377916666666668
267,2016-07-09,6.399166666666667,,6.399166666666667
267,2016-07-10,17.811666666666667,,17.811666666666667
267,2016-07-11,25.667916666666667,,25.667916666666667
267,2016-07-12,26.673333333333332,,26.673333333333332
267,2016-07-13,20.746666666666666,,20.746666666666666
267,2016-07-14,14.170833333333334,,14.170833333333334
267,2016-07-15,26.515416666666667,,26.515416666666667
267,2016-07-16,24.7975,,24.7975
267,2016-07-17,26.360833333333332,,26.360833333333332
267,2016-07-18,21.213333333333335,,21.213333333333335
267,2016-07-19,25.840833333333332,,25.840833333333332
267,2016-07-20,30.96166666666667,,30.96166666666667
267,2016-07-21,30.389583333333334,,30.389583333333334
267,2016-07-22,24.914583333333336,,24.914583333333336
267,2016-07-23,28.069999999999997,,28.069999999999997
267,2016-07-24,27.202083333333334,,27.202083333333334
267,2016-07-25,20.65625,,20.65625
267,2016-07-26,30.69333333333333,,30.69333333333333
267,2016-07-27,29.27416666666667,,29.27416666666667
267,2016-07-28,24.23375,,24.23375
267,2016-07-29,19.462500000000002,,19.462500000000002
267,2016-07-30,16.017500000000002,,16.017500000000002
267,2016-07-31,9.9675,,9.9675
267,2016-08-01,13.174999999999999,,13.174999999999999
267,2016-08-02,16.97375,,16.97375
267,2016-08-03,27.22791666666667,,27.22791666666667
267,2016-08-04,20.672916666666666,,20.672916666666666
267,2016-08-05,23.006249999999998,,23.006249999999998
267,2016-08-06,16.405,,16.405
267,2016-08-07,24.926666666666666,,24.926666666666666
267,2016-08-08,21.80333333333333,,21.80333333333333
267,2016-08-09,20.723333333333333,,20.723333333333333
267,2016-08-10,8.736666666666666,,8.736666666666666
267,2016-08-11,20.789583333333333,,20.789583333333333
267,2016-08-12,21.71375,,21.71375
267,2016-08-13,23.79125,,23.79125
267,2016-08-14,23.042916666666667,,23.042916666666667
267,2016-08-15,23.906666666666666,,23.906666666666666
267,2016-08-16,17.5475,,17.5475
267,2016-08-17,20.985,,20.985
267,2016-08-18,15.17,,15.17
267,2016-08-19,17.027916666666666,,17.027916666666666
267,2016-08-20,24.825,,24.825
267,2016-08-21,16.162916666666668,,16.162916666666668
267,2016-08-22,26.920833333333334,,26.920833333333334
267,2016-08-23,24.1125,,24.1125
267,2016-08-24,23.5175,,23.5175
267,2016-08-25,17.440833333333334,,17.440833333333334
267,2016-08-26,18.521666666666665,,18.521666666666665
267,2016-08-27,20.234583333333333,,20.234583333333333
267,2016-08-28,18.929583333333333,,18.929583333333333
267,2016-08-29,18.405,,18.405
267,2016-08-30,18.892916666666668,,18.892916666666668
267,2016-08-31,11.82625,,11.82625
267,2016-09-01,8.169166666666667,,8.169166666666667
267,2016-09-02,19.88625,,19.88625
267,2016-09-03,14.21875,,14.21875
267,2016-09-04,21.80458333333333,,21.80458333333333
267,2016-09-05,16.059166666666666,,16.059166666666666
267,2016-09-06,14.214583333333332,,14.214583333333332
267,2016-09-07,15.407083333333333,,15.407083333333333
267,2016-09-08,20.569583333333334,,20.569583333333334
267,2016-09-09,13.947916666666666,,13.947916666666666
267,2016-09-10,15.834166666666667,,15.834166666666667
267,2016-09-11,16.357916666666664,,16.357916666666664
267,2016-09-12,20.710833333333333,,20.710833333333333
267,2016-09-13,18.882916666666667,,18.882916666666667
267,2016-09-14,19.113333333333333,,19.113333333333333
267,2016-09-15,19.437916666666666,,19.437916666666666
267,2016-09-16,18.2525,,18.2525
267,2016-09-17,17.015,,17.015
267,2016-09-18,7.134166666666666,,7.134166666666666
267,2016-09-19,3.127083333333333,,3.127083333333333
267,2016-09-20,13.645833333333334,,13.645833333333334
267,2016-09-21,20.460833333333333,,20.460833333333333
267,2016-09-22,22.002499999999998,,22.002499999999998
267,2016-09-23,19.938333333333333,,19.938333333333333
267,2016-09-24,23.412916666666664,,23.412916666666664
267,2016-09-25,26.09583333333333,,26.09583333333333
267,2016-09-26,20.615416666666665,,20.615416666666665
267,2016-09-27,17.377083333333335,,17.377083333333335
267,2016-09-28,7.245833333333334,,7.245833333333334
267,2016-09-29,10.691249999999998,,10.691249999999998
267,2016-09-30,5.3933333333333335,,5.3933333333333335
267,2016-10-01,5.937916666666666,,5.937916666666666
267,2016-10-02,6.104583333333333,,6.104583333333333
267,2016-10-03,14.676666666666668,,14.676666666666668
267,2016-10-04,16.223333333333333,,16.223333333333333
267,2016-10-05,21.1575,,21.1575
267,2016-10-06,21.24125,,21.24125
267,2016-10-07,21.50583333333333,,21.50583333333333
267,2016-10-08,7.225833333333333,,7.225833333333333
267,2016-10-09,2.8491666666666666,,2.8491666666666666
267,2016-10-10,20.658333333333335,,20.658333333333335
267,2016-10-11,20.28,,20.28
267,2016-10-12,14.404166666666667,,14.404166666666667
267,2016-10-13,9.352083333333333,,9.352083333333333
267,2016-10-14,20.135833333333334,,20.135833333333334
267,2016-10-15,18.74083333333333,,18.74083333333333
267,2016-10-16,14.428333333333333,,14.428333333333333
267,2016-10-17,14.54,,14.54
267,2016-10-18,17.20958333333333,,17.20958333333333
267,2016-10-19,14.394583333333335,,14.394583333333335
267,2016-10-20,12.870416666666666,,12.870416666666666
267,2016-10-21,3.495416666666667,,3.495416666666667
267,2016-10-22,3.7441666666666666,,3.7441666666666666
267,2016-10-23,16.170833333333334,,16.170833333333334
267,2016-10-24,12.519583333333335,,12.519583333333335
267,2016-10-25,10.585833333333333,,10.585833333333333
267,2016-10-26,14.5475,,14.5475
267,2016-10-27,1.19875,,1.19875
267,2016-10-28,8.987499999999999,,8.987499999999999
267,2016-10-29,10.602083333333333,,10.602083333333333
267,2016-10-30,9.12625,,9.12625
267,2016-10-31,11.257916666666667,,11.257916666666667
267,2016-11-01,16.32,,16.32
267,2016-11-02,14.72125,,14.72125
267,2016-11-03,5.451250000000001,,5.451250000000001
267,2016-11-04,15.041666666666666,,15.041666666666666
267,2016-11-05,15.60125,,15.60125
267,2016-11-06,15.429583333333333,,15.429583333333333
267,2016-11-07,16.524583333333332,,16.524583333333332
267,2016-11-08,15.583333333333334,,15.583333333333334